Location: Perryvale
(54.4667°N, 113.3833°W)
Time: 10:55:38
(UTC+00:00)

Vanguard 3 - Pass Details

Date: 25 May 2024
Orbit: 509 x 3231 km, 33.3° (Epoch: 16 June)

Event Time Altitude Azimuth Distance (km) Brightness Sun altitude
Rises 05:20:04 0° 252° (WSW) 4,925 11.3 -9.5°
Reaches altitude 10° 05:23:39 10° 240° (WSW) 4,322 10.9 -9.7°
Maximum altitude 05:33:09 26° 191° (S) 4,020 10.2 -10.4°
Enters shadow 05:44:50 12° 147° (SSE) 5,723 10.8 -11.2°
